Accueil
METAR-TAF:

METAR-TAF

Aéroports :

Port Hawkesbury, Nouvelle-Écosse, Canada

latitude: 45-40N, longitude: 061-23W, altitude: 114 m

Observation

Le bulletin a été fait il y a 13 minutes, à 22:06 UTC
Vent 9 kt de est
Température 2°C
Humidité 93%
Pression 1007 hPa
Visibilité: 2.0 km
Ciel couvert à une hauteur de 400 ft
pluie faible, (faible) inconnu, brume

METAR: CYPD 202206Z AUTO 08009KT 1 1/4SM -RA -UP BR OVC004 02/01 A2974 RMK SLP081

Heure: 18:19 (22:19 UTC)


TAF: absent

Observations et prévisions météorologiques de plus de 4000 aéroports (messages METAR et TAF).

Les stations disponibles sont représentées par des disques jaunes et rouges sur la carte.

Passer la souris dessus pour voir le nom de la station.

Cliquer dessus pour voir les observations et prévisions météorologiques.

Pour changer de carte: cliquez sur les boutons verts avec une croix noire pour zoomer, sur le bouton vert avec un tiret pour effectuer un zoom arrière, ou sur les flèches vertes pour les cartes adjacentes.


METAR-TAF: